FLOCK 3P-21

Last updated on Wed Feb 14 2018 16:20:19 GMT+0000 (Coordinated Universal Time)

1 41959U 17008M 18044.87149053 .00002148 00000-0 92341-4 0 9996 2 41959 97.4662 110.3370 0010255 70.8852 289.3494 15.23713304 55167
UTC large
Height (km)
Speed (km/s)
/
Latitude / Longitude
Inclination (degrees)
Orbital Period (minutes)
Azimuth
Elevation
Range (km)
Doppler Factor

Next 0 passes for location: London (51.5072 / 0.1276)

Sorry there are no passes over London.
FLOCK 3P-21